Flag for Germany Weather past 2 weeks in Gera, Thuringia, Germany

Now
45 °F

Overcast.


Feels Like: 40 °F
Forecast: 45 / 51 °F
Wind: 9 mph from West

Location: Gera-Leumnitz

Current Time: Oct 22, 2014 at 3:55:37 AM

Latest Report: Oct 22, 2014 at 3:00 AM


Visibility: 31 mi

Pressure: 29.72 "Hg

Humidity: 80%

Dew point: 39 °F

Location of GeraLocation

Historic Weather in Gera — Graph

°F

Gera temperature yesterday

Maximum temperature yesterday: 56 °F (at 1:00 PM)
Minimum temperature yesterday: 47 °F (at 11:00 PM)
Average temperature yesterday: 51 °F

Past Weeks' High & Low Weather Summary

 TemperatureHumidityPressure
High76 °F (Oct 9, 4:00 PM)99% (Oct 11, 8:00 AM)30.24 "Hg (Oct 11, 8:00 AM)
Low45 °F (Oct 22, 2:00 AM)49% (Oct 9, 5:00 PM)29.50 "Hg (Oct 21, 9:00 PM)
Average57 °F82%29.89 "Hg
* Reported Oct 7 3:00 AM — Oct 22 3:00 AM, Gera, Weather by CustomWeather, © 2014

Note: Actual official high and low records may vary slightly from our data, if they occured in-between our weather recording intervals... More about our weather records

Advertising

Gera weather history for previous 24 hours

 ConditionsComfort  
Time TempWeatherWind HumidityBarometerVisibility
3:00 AM
Oct 22
45 °FOvercast.9 mph80%29.72 "Hg31 mi
2:00 AM45 °FLight rain. Passing clouds.12 mph84%29.71 "Hg19 mi
1:00 AM47 °FLight rain. Passing clouds.10 mph84%29.66 "Hg31 mi
12:00 AM48 °FPassing clouds.8 mph86%29.61 "Hg43 mi
11:00 PM
Oct 21
47 °FPassing clouds.6 mph91%29.58 "Hg43 mi
10:00 PM47 °FDrizzle. Low clouds.10 mph84%29.55 "Hg43 mi
9:00 PM53 °FOvercast.5 mph81%29.50 "Hg43 mi
8:00 PM53 °FPassing clouds.8 mph80%29.54 "Hg43 mi
7:00 PM53 °FOvercast.7 mph77%29.57 "Hg43 mi
6:00 PM56 °FOvercast.9 mph67%29.59 "Hg34 mi
5:00 PM55 °FOvercast.8 mph71%29.63 "Hg34 mi
4:00 PM54 °FOvercast.8 mph71%29.67 "Hg31 mi
3:00 PM55 °FOvercast.10 mph65%29.70 "Hg31 mi
2:00 PM56 °FOvercast.8 mph64%29.74 "Hg37 mi
1:00 PM56 °FPartly sunny.8 mph69%29.78 "Hg25 mi
12:00 PM56 °FPartly sunny.8 mph72%29.80 "Hg25 mi
11:00 AM53 °FPassing clouds.9 mph78%29.84 "Hg25 mi
10:00 AM51 °FPartly sunny.7 mph83%29.86 "Hg28 mi
9:00 AM48 °FOvercast.6 mph89%29.87 "Hg25 mi
8:00 AM48 °FOvercast.6 mph90%29.88 "Hg31 mi
7:00 AM48 °FPassing clouds.5 mph87%29.89 "Hg37 mi
6:00 AM49 °FOvercast.5 mph86%29.90 "Hg37 mi
5:00 AM48 °FOvercast.5 mph89%29.91 "Hg34 mi
4:00 AM48 °FOvercast.3 mph86%29.93 "Hg34 mi
3:00 AM49 °FOvercast.5 mph83%29.94 "Hg40 mi
Weather by CustomWeather, © 2014

See weather overviewHow to use our weather pages